Location: Unspecified
(0.0000°N, 0.0000°E)
Time: 04:39:54
(UTC+00:00)

A-11 Canister half - Pass Details

Date: 23 April 2026
Orbit: 1523 x 1685 km, 47.3° (Epoch: 13 May)

Event Time Altitude Azimuth Distance (km) Brightness Sun altitude
Rises 21:20:25 0° 248° (WSW) 4,749 12.0 -48.8°
Reaches altitude 10° 21:24:10 10° 260° (W) 3,788 11.4 -49.7°
Maximum altitude 21:31:44 26° 312° (NW) 2,774 10.5 -51.5°
Enters shadow 21:35:25 21° 343° (NNW) 3,068 10.7 -52.4°
Drops below altitude 10° 21:39:33 10° 5° (N) 3,881 - -53.3°
Sets 21:43:30 0° 18° (NNE) 4,888 - -54.2°
